STARLINK-33597 (62763 NORAD) Tracking and Keplerian Element Data

This shows tracking and keplerian element data for the satellite.

Feedback or suggestion? Click here.




ElementValue
Catalog62763
NameSTARLINK-33597
Epoch Orbit339
Epoch Day35.25001157
Epoch Year2025
RAAN18.7039
Inclination53.1599
Eccentricity0.0001317
Argument of Perigee73.666
Mean Anonmoly190.2249
Mean Motion15.78879435
Decay Rate-0.00966665
L11 62763U 25015F 25035.25001157 -.00966665 00000+0 -59982-2 0 9997
L22 62763 53.1599 18.7039 0001317 73.6660 190.2249 15.78879435 3395



Live tracking and technical data element details for STARLINK-33597 (NORAD 62763). STARLINK-33597 can be tracked NOW for your location showing map with azimuth and elevation plus other details from your city location.







IsCatalogInMostPopularTable: catalog: 62763, numindb: 212
Update: records affected: 1



GetName: 62763 STARLINK-33597

Hit Count: updated at: Sat, 06 Dec 2025 13:26:09 GMT